This demonstration page uses our WeatherBlox Daily Observations layout. Learn more.

39.29038, -76.61219

Hourly Observations for January 1, 2019

Temp ( °F °C ) Dew Point ( °F °C ) Humidity (%) Winds ( mph kmh ) Pressure ( in mb ) Visibility ( mi km ) Precip ( " mm )
12:54 am 00:54 undefined 51 10.6 49 9.4 92 92 undefined N/A 29.77 1008 N/A 0.01 0.254
1:54 am 01:54 undefined 54 12.2 52 11.1 93 93 undefined N/A 29.74 1007 N/A 0 0
2:54 am 02:54 undefined 58 14.4 55 12.8 90 90 undefined N/A 29.74 1007 N/A 0 0
3:54 am 03:54 undefined 59 15 55 12.8 87 87 undefined N/A 29.71 1006 N/A 0 0
4:54 am 04:54 undefined 59 15 55 12.8 87 87 undefined N/A 29.71 1006 N/A 0 0
5:54 am 05:54 undefined 59 15 55 12.8 87 87 undefined N/A 29.74 1007 N/A 0 0
6:54 am 06:54 undefined 59 15 55 12.8 87 87 undefined N/A 29.74 1007 N/A 0 0
7:54 am 07:54 undefined 57 13.9 53 11.7 87 87 undefined N/A 29.77 1008 N/A 0 0
8:54 am 08:54 undefined 61 16.1 48 8.9 63 63 undefined N/A 29.83 1010 N/A 0 0
9:54 am 09:54 undefined 62 16.7 44 6.7 52 52 undefined N/A 29.88 1012 N/A 0 0
10:54 am 10:54 undefined 61 16.1 42 5.6 50 50 undefined N/A 29.91 1013 N/A 0 0
11:54 am 11:54 undefined 59 15 41 5 51 51 undefined N/A 29.91 1013 N/A 0 0
12:54 pm 12:54 undefined 57 13.9 40 4.4 53 53 undefined N/A 29.94 1014 N/A 0 0
1:54 pm 13:54 undefined 57 13.9 37 2.8 47 47 undefined N/A 29.97 1015 N/A 0 0
2:54 pm 14:54 undefined 56 13.3 37 2.8 49 49 undefined N/A 30 1016 N/A 0 0
3:54 pm 15:54 undefined 54 12.2 36 2.2 51 51 undefined N/A 30.03 1017 N/A 0 0
4:54 pm 16:54 undefined 53 11.7 35 1.7 51 51 undefined N/A 30.06 1018 N/A 0 0
5:54 pm 17:54 undefined 51 10.6 35 1.7 54 54 undefined N/A 30.12 1020 N/A 0 0
6:54 pm 18:54 undefined 50 10 35 1.7 57 57 undefined N/A 30.15 1021 N/A 0 0
7:54 pm 19:54 undefined 49 9.4 34 1.1 56 56 undefined N/A 30.18 1022 N/A 0 0
8:54 pm 20:54 undefined 48 8.9 33 0.6 56 56 undefined N/A 30.18 1022 N/A 0 0
9:54 pm 21:54 undefined 47 8.3 32 0 56 56 undefined N/A 30.18 1022 N/A 0 0
10:54 pm 22:54 undefined 46 7.8 32 0 58 58 undefined N/A 30.18 1022 N/A 0 0
11:54 pm 23:54 undefined 45 7.2 32 0 61 61 undefined N/A 30.21 1023 N/A 0 0

Powered by AerisWeather